FENGYUN 1C DEB, 30359

Orbit data source: Space-Track

FENGYUN 1C DEB, 30359 is space debris in SSO originally from a launch on Mon, 10 May 1999 UTC launched from the Taiyaun Space Center, China (TSC). Fengyun 1C debris stems from the Chinese weather satellite Fengyun-1C, which was intentionally destroyed by a Chinese anti-satellite missile in 2007. This event dramatically increased the amount of space debris, with thousands of trackable fragments posing hazards to satellites and human spaceflight. The Fengyun 1C debris cloud has become a focal point in discussions about space sustainability and the need for international regulations to prevent the creation of new debris.

Loading next visibility...
Identifier
30359, 1999-025ABW
Orbit
SSO
Country
Flag of CNCN / PRC
Related business
Manufacturer
Unknown
Mission
Spacecraft
Bus & Motor
Unknown
Mass
Unknown
Launch date (UTC)
1999-05-10 (27 years ago)
Launch vehicle
Unknown
Launch site
Taiyaun Space Center, China (TSC)
Object type
Payload
Rocket body
Debris
Shape & HBR
Unknown shape, 0.1 m
Radar Cross Section
Medium (>0.1 m² and <1 m²)

Expand to show TLE details & history
Last TLE update: 14 hours ago

TLE from 14 hours ago
0 FENGYUN 1C DEB
1 30359U 99025ABW 26255.16753142  .00002402  00000-0  16598-2 0  9993
2 30359 101.6160 156.1630 0145643  21.6124 339.1092 13.95556015988819
Epoch: 2026-09-12T04:01Z
TLE epoch observation values (Epoch: 2026-09-12T04:01:14.714Z)
Latitude
-0.00009°
Longitude
104.67129°
Altitude
813.024 km
Speed
7.497 km/s
True Right ascension
10h 24m 39s
True Declination
0° 00' 00"
Sunlit
Object was in daylight at epoch
Visualization orbit readout
Latitude
Unknown
Longitude
Unknown
Altitude
Unknown
Speed
Unknown
Apparent Right ascension
Unknown
Apparent Declination
Unknown
Sunlit
N/A
Visualization observer readout
Local Sidereal Time
10:17:28
Azimuth
Unknown
Elevation
Unknown
Doppler factor
Unknown
Orbital elements
Apogee altitude
1,012.672 km
Perigee altitude
800.478 km
Semi-major axis
7,284.712 km
Eccentricity
0.01456
Inclination
101.616°
RAAN
156.163°
Arg. of periapsis
21.6124°
True anomaly
338.5038°
Mean anomaly
339.1092°
Eccentric anomaly
338.80754°
Mean motion
3.4908 °/min
Orbital period
103.13 mins
BSTAR
0.0016598
Loading maneuver chart data...
Computing Atmospheric mass density...

Documentation

Showing up to 5 results
|